Lübeck Blankensee Airport

Jump to: basic info | weather | frequencies | runways | comments

Related pages: nearby airports | nearby navaids | notams | map

Basic information (top)

Codes: LBC EDHL
Location: lon 53.805401, lat 10.719200, elev 53 ft / 16 m msl
Status: medium_airport
Scheduled airline service: yes
Links: Wikipedia Mobile

Weather (top)

Current conditions (rec'd 2014/09/21 19:50Z):

EDHL 211950Z 27006KT 250V310 CAVOK 13/10 Q1011 RMK ATIS FOX

Airport forecast for Hamburg Airport 28nm (52km) WSW (rec'd 2014/09/21 18:27Z):

TAF EDDH 211700Z 2118/2224 30015KT 9999 FEW030 
      BECMG 2118/2120 30010KT PROB40 
      TEMPO 2204/2208 30015G25KT 4500 SHRA BKN010TCU 
      BECMG 2208/2210 35015KT 
      TEMPO 2210/2218 35015G25KT 
      BECMG 2218/2220 32008KT

Frequencies (top)

Verify before use: may be inaccurate or out of date.

AFIS: 125.1 MHz (BREMEN INFO)
ATIS: 119.925 MHz (ATIS)
GND: 121.775 MHz (GND)
INFO: 128.7 MHz (INFO)
RDR: 124.225 MHz (BREMEN RADAR)
TWR: 128.7 MHz (TWR)

Runways (top)

07/25: 6,896 x 197 ft (2,102 x 60 m) — paved — lighted — threshold 07 displaced 984 ft (300 m)

Latest comments (top)

No comments yet for Lübeck Blankensee Airport

More... (top)

See also NOTAMs and nearby airports and navaids, or visit the Lübeck Blankensee Airport page at the main OurAirports website..